Theta_e
307 309 308 308 309 308 308 309 309 305 305 306 308 307 306 306 308 312 313 310 311 315 325 338 335 345 344 349 347 351 364 365 362 361 362 357 361 355 351 353 350 349 348 346 344
308 309 310 309 309 309 308 307 307 307 305 306 309 306 306 309 314 314 309 310 311 319 332 332 330 342 348 350 351 357 361 362 355 356 359 356 357 357 354 355 354 351 347 346 345
309 309 307 308 308 308 307 306 306 306 305 306 309 309 309 313 317 318 322 311 312 326 331 326 328 338 346 347 352 356 361 356 355 355 356 355 354 355 357 359 353 353 349 346 345
309 308 308 307 307 306 306 305 306 306 304 306 309 309 311 315 320 319 321 310 320 327 325 324 328 330 345 349 346 357 352 352 354 356 356 357 353 356 354 358 350 349 347 346 346
310 308 307 307 307 306 305 305 305 305 305 307 310 311 314 316 314 318 314 322 334 326 323 323 327 333 341 346 342 351 351 346 346 354 356 355 356 356 357 351 349 347 348 346 346
307 307 309 309 309 309 308 306 305 305 304 307 313 314 314 312 321 319 319 332 322 319 320 323 327 331 339 340 344 341 343 341 340 340 354 355 354 353 357 350 350 349 349 348 347
308 308 308 309 309 310 309 306 305 305 305 308 311 318 319 312 326 318 327 326 319 316 319 320 327 332 336 340 337 335 338 350 356 353 355 350 357 356 356 350 352 350 349 349 348
308 309 309 310 310 311 308 305 304 304 305 311 318 320 321 323 325 320 319 318 318 316 316 317 323 329 332 332 329 331 330 336 359 357 354 354 362 359 355 351 353 351 350 349 348
308 308 309 310 312 310 306 314 310 307 308 315 319 321 324 322 326 321 318 319 317 316 316 317 320 327 324 333 336 331 342 333 357 356 357 356 357 361 357 353 353 351 349 348 348
309 309 310 310 310 309 310 317 316 313 318 321 321 321 320 323 322 321 321 318 318 318 318 317 318 327 329 335 346 340 334 330 345 359 356 358 357 359 358 359 354 352 350 348 348
309 310 310 310 308 309 312 314 312 317 321 315 315 315 317 318 319 322 320 322 319 320 320 318 325 328 334 333 331 331 331 332 329 333 339 342 346 354 359 354 357 353 351 350 348
311 311 310 308 309 310 310 313 313 311 314 314 318 317 317 317 315 322 323 326 323 321 321 319 324 326 330 328 331 332 334 332 329 342 333 354 357 355 356 356 355 355 352 352 349
312 311 310 307 311 311 310 312 311 311 314 313 315 315 315 318 315 318 323 326 327 324 321 320 324 326 328 329 333 333 336 332 331 328 354 355 359 359 358 356 357 356 352 350 350
312 310 307 309 310 311 312 311 311 310 314 314 314 315 314 315 313 315 321 326 327 329 324 323 327 329 327 330 331 337 329 331 330 328 328 350 340 360 357 359 356 357 356 353 351
312 309 306 309 312 312 313 311 309 309 315 314 314 311 310 312 317 316 315 320 327 327 326 327 329 333 334 332 329 332 327 330 329 328 325 337 342 333 355 357 356 353 354 353 351
312 309 308 309 310 312 311 312 309 315 315 315 312 311 312 312 313 314 315 315 316 322 323 320 318 325 329 327 328 325 323 322 322 324 328 328 335 340 341 342 344 346 350 351 353
313 313 313 311 313 313 313 312 317 318 316 317 315 312 312 312 314 315 316 316 318 325 328 317 316 315 316 324 324 325 327 328 329 327 329 322 333 342 338 339 345 346 344 345 351
315 314 312 312 311 313 310 316 320 316 316 315 314 315 314 314 315 315 316 317 315 314 317 323 320 316 315 316 323 327 327 327 330 329 328 322 334 334 322 326 333 343 345 346 348
317 316 312 312 313 311 316 318 316 315 314 315 315 316 316 315 316 316 315 316 315 314 321 319 317 315 314 314 316 321 324 320 323 320 327 325 328 328 327 334 338 345 347 347 346
316 314 313 312 311 311 316 314 315 313 313 313 316 315 317 315 316 316 316 315 316 314 312 315 317 314 314 314 315 319 316 324 324 328 328 330 329 327 334 340 342 343 344 347 348
312 317 313 312 311 314 315 314 314 313 313 314 314 314 314 315 315 316 316 315 315 316 313 313 316 316 315 314 314 317 319 319 322 322 328 331 327 326 338 339 338 339 343 345 351
312 317 313 312 316 311 315 313 311 313 312 313 313 313 313 314 315 317 316 315 313 314 315 313 315 316 314 312 311 312 314 316 326 326 323 326 323 330 335 336 334 336 341 341 345
315 313 313 311 316 315 313 313 312 313 313 313 313 312 312 313 317 316 315 312 314 316 316 314 314 317 315 315 314 315 314 313 313 318 326 326 321 329 334 335 333 334 337 337 337
313 315 314 311 308 313 313 314 314 311 311 312 313 312 313 314 314 315 314 313 311 317 315 312 313 316 316 317 315 315 313 313 315 321 320 320 319 326 333 334 332 334 334 334 333
311 312 309 314 313 312 312 313 313 313 311 311 313 312 313 315 315 315 313 313 313 312 313 313 316 315 314 313 313 313 312 312 314 315 319 318 320 327 330 330 329 330 332 332 331
318 314 309 310 309 313 312 313 313 312 313 312 313 312 313 314 313 315 313 313 313 313 312 312 316 315 315 313 312 313 312 312 312 312 314 315 320 324 326 326 326 326 327 328 329
312 308 314 310 313 314 313 313 313 312 312 312 311 312 313 312 311 311 310 310 311 312 312 313 315 316 315 313 311 312 312 311 312 315 314 313 320 322 323 323 322 323 322 323 324
Wind_Speed
18 17 17 17 17 16 17 15 14 13 11 12 13 11 8 7 5 5 7 7 12 21 19 17 7 12 6 4 2 3 2 4 3 2 5 1 4 5 7 5 3 4 7 19 30
18 18 18 18 17 17 16 15 15 14 11 11 10 9 7 4 4 10 9 13 16 26 21 22 12 14 4 4 2 2 1 3 3 6 8 8 7 9 0 2 8 11 19 29 29
18 18 19 19 18 18 17 15 14 14 11 8 7 7 4 3 3 4 2 16 20 25 18 14 17 8 5 3 3 1 2 1 4 9 13 10 8 7 5 5 7 19 23 27 28
20 20 19 19 19 18 17 16 14 12 11 7 4 4 3 2 2 2 3 22 24 23 20 16 11 10 6 6 4 3 5 6 3 7 6 9 12 8 6 4 8 20 23 26 23
20 20 20 19 19 18 18 17 15 13 7 7 4 2 1 2 5 7 15 24 23 20 19 11 16 7 8 6 4 8 5 5 6 6 4 12 9 6 7 7 14 21 23 21 21
20 20 20 21 20 20 19 17 15 10 8 2 3 2 1 2 5 6 22 24 17 14 13 16 11 5 7 4 5 3 7 10 6 7 9 9 6 5 8 11 13 20 21 20 20
21 22 22 22 22 22 22 18 15 11 5 4 2 1 2 1 2 16 20 16 19 8 8 5 10 4 5 4 1 4 4 3 6 9 5 14 7 3 15 15 17 19 19 18 19
23 23 23 22 23 23 22 17 11 9 6 7 7 2 3 2 6 16 15 13 14 8 5 4 5 3 1 3 2 3 2 2 4 6 8 6 8 9 16 17 18 19 18 18 18
24 24 23 24 23 22 19 8 5 4 10 9 6 3 1 6 6 13 10 13 12 6 5 6 3 2 2 2 4 1 5 5 4 3 6 3 7 13 15 18 19 19 18 18 17
26 25 24 23 21 20 2 12 15 14 9 5 1 2 3 4 8 15 4 19 6 9 6 4 3 5 3 5 8 8 6 4 5 6 4 5 5 10 11 13 18 19 17 18 18
26 26 23 21 19 13 9 3 2 3 4 4 3 1 2 2 12 12 13 10 13 11 6 6 7 13 12 7 3 5 6 7 3 3 2 5 6 11 12 7 14 16 18 18 19
26 25 20 16 9 8 9 0 3 3 4 6 7 5 7 4 6 11 15 5 11 12 10 7 13 9 8 5 4 4 4 4 3 4 2 4 5 8 13 11 12 15 18 19 19
24 19 15 13 4 2 1 2 12 4 2 2 4 4 2 7 7 12 19 8 13 10 11 12 7 11 9 7 8 4 5 3 3 1 4 4 5 7 8 10 7 14 17 17 19
21 15 11 5 2 3 1 11 11 12 2 2 3 2 5 4 4 7 19 8 5 12 11 6 6 15 10 9 8 9 7 4 2 1 2 2 3 3 7 12 11 11 14 17 20
15 11 7 3 2 1 4 18 3 3 2 5 3 2 3 3 12 4 3 3 11 9 5 5 12 15 11 10 8 2 5 5 2 2 2 3 3 6 3 3 10 14 13 13 19
12 9 7 4 5 3 12 13 3 3 4 2 3 2 5 2 2 5 2 5 3 6 3 4 3 4 6 8 11 10 7 5 4 1 5 5 3 8 5 8 8 9 16 19 17
10 11 8 4 4 14 12 0 2 3 5 7 4 4 8 6 6 4 5 6 2 9 10 4 3 2 4 8 8 7 8 5 6 5 5 4 5 5 8 11 12 14 12 16 19
4 10 13 9 11 8 1 1 6 3 4 4 4 5 5 5 7 7 4 4 10 3 3 7 6 5 9 2 5 13 12 5 9 9 7 2 8 6 9 10 13 15 15 6 11
1 1 11 18 8 3 2 6 3 4 6 8 3 4 4 4 5 5 7 5 6 8 1 4 4 1 9 7 3 6 8 2 5 1 9 4 4 7 14 16 18 20 19 15 8
2 2 10 21 9 2 5 5 3 7 6 3 3 4 4 4 4 4 5 5 6 9 3 2 6 7 6 2 10 3 4 6 3 10 11 4 3 3 15 18 19 21 20 18 11
3 1 14 17 6 7 4 4 3 8 7 6 4 3 6 4 6 4 4 3 8 7 6 1 1 3 1 7 7 2 3 3 3 3 6 7 4 5 8 11 13 15 17 19 19
3 2 20 10 5 2 4 3 5 10 8 7 5 8 5 6 6 4 4 5 13 4 4 4 4 5 4 2 3 5 3 2 7 6 2 1 5 5 7 9 10 14 17 18 20
2 2 12 5 4 4 3 4 8 11 9 7 7 8 6 4 5 4 3 5 12 6 3 2 3 5 3 3 2 4 5 3 2 0 4 6 5 5 7 10 12 14 15 15 19
2 3 4 5 3 4 3 4 3 6 8 7 6 3 3 6 8 4 3 4 7 8 11 2 4 3 1 4 2 2 4 5 3 3 7 3 11 5 8 11 12 14 14 16 17
4 3 1 4 6 7 3 3 4 4 5 10 6 10 4 3 3 4 3 3 7 11 5 4 4 6 8 6 2 1 2 4 5 4 2 9 8 6 6 8 10 10 12 15 17
3 2 2 3 2 6 5 4 7 4 6 6 7 9 8 5 4 3 1 4 3 7 4 3 4 5 3 3 3 3 5 5 2 1 3 4 5 4 5 6 9 11 13 15 15
2 2 1 3 2 2 3 2 3 2 6 7 4 6 9 6 4 5 6 4 3 3 3 2 5 2 4 2 2 5 4 5 1 2 1 4 5 4 3 6 8 9 11 12 13
Wind_Direction
351 348 345 344 344 342 341 342 343 339 335 335 332 324 303 285 287 256 236 213 183 167 157 146 124 139 147 166 216 253 230 81 76 49 121 47 95 47 329 151 82 189 141 143 151
347 343 340 340 339 338 339 340 337 334 334 332 332 331 324 309 283 247 244 200 164 163 155 157 149 152 155 177 200 271 351 56 90 128 123 118 121 128 323 202 72 97 124 142 152
342 338 338 339 338 336 334 334 333 330 329 332 334 353 334 334 270 238 314 178 169 165 155 151 141 147 150 174 189 227 214 201 120 112 134 135 134 164 198 188 162 149 143 149 157
338 336 334 337 334 333 331 329 324 324 323 324 306 347 338 338 168 348 221 165 162 164 147 141 155 157 169 179 207 256 251 270 173 155 141 153 140 167 147 15 154 148 151 152 160
337 335 336 333 331 329 327 325 319 315 311 313 309 306 2 247 263 327 153 152 152 160 164 154 162 151 174 183 181 229 265 257 244 194 139 140 148 134 114 100 138 145 155 159 163
339 339 334 331 329 326 320 316 312 303 290 255 313 142 170 245 325 154 149 152 150 153 150 158 175 158 158 176 209 236 257 296 299 204 150 134 132 150 120 129 152 158 162 167 172
338 338 336 331 328 324 316 312 308 288 255 187 154 165 197 328 11 155 149 157 160 148 147 159 173 172 153 170 243 274 278 129 69 129 130 126 126 252 145 153 163 168 169 174 180
337 335 334 330 327 322 318 318 304 269 192 176 146 127 243 42 156 155 157 143 161 140 162 143 153 140 220 317 191 231 215 161 127 145 147 313 122 144 160 159 172 173 175 178 183
339 337 334 330 327 324 327 32 0 161 151 143 131 122 117 138 156 176 166 155 155 139 70 154 143 178 194 193 159 173 156 128 135 165 163 287 109 154 170 172 176 179 183 183 184
341 337 334 329 326 324 49 96 90 100 114 139 152 185 211 185 151 161 165 142 134 147 117 133 156 193 177 193 176 161 142 104 124 157 137 163 99 138 173 187 184 182 184 191 190
340 334 332 329 330 321 137 135 174 131 203 246 143 131 291 42 129 168 157 127 127 153 158 164 186 196 188 198 97 120 128 123 91 93 204 198 175 174 162 157 180 179 189 188 194
337 332 334 339 343 73 143 103 76 339 300 234 246 273 258 246 122 139 171 145 158 156 142 157 210 189 187 202 191 151 148 124 99 46 200 140 116 196 192 182 181 185 192 199 192
338 337 338 347 103 71 132 131 317 201 235 287 207 211 177 175 141 165 177 156 164 161 172 180 191 169 181 178 185 170 196 167 95 61 92 144 121 147 202 199 179 195 199 201 204
341 345 343 32 117 352 228 340 331 171 304 109 199 193 144 193 98 154 184 156 167 178 175 197 159 175 183 190 199 204 202 191 155 223 139 313 138 96 174 208 213 199 202 205 204
351 352 355 33 323 212 337 338 139 194 138 336 135 103 120 184 132 136 197 178 163 150 184 151 164 182 192 198 189 170 169 195 157 148 197 214 219 28 151 195 253 250 228 219 214
7 19 17 7 314 315 324 336 169 244 71 15 1 117 137 68 71 113 116 50 81 140 211 95 93 175 201 183 179 142 108 81 83 182 205 179 277 51 39 351 335 332 256 225 215
24 31 15 345 340 316 319 175 183 40 335 1 359 21 89 31 57 51 50 45 98 162 183 119 70 61 22 157 162 168 176 145 172 195 188 93 116 65 26 20 13 357 330 238 217
58 45 24 359 318 331 82 145 65 5 7 348 349 56 81 25 40 33 76 74 37 4 138 171 154 10 1 18 182 189 199 196 178 187 162 118 145 104 35 18 12 18 23 5 231
61 32 16 2 13 15 96 56 29 340 331 329 320 95 77 60 117 87 55 38 21 358 220 148 95 28 48 31 314 149 199 54 107 38 184 124 113 196 14 17 17 17 12 5 337
359 52 15 357 354 64 72 89 64 13 325 303 63 7 108 31 99 84 37 18 352 15 289 125 124 25 12 317 48 8 103 175 211 168 181 116 126 46 0 2 6 9 9 2 353
49 50 356 358 44 52 72 62 17 4 14 28 42 82 70 62 55 70 22 71 358 340 31 38 1 51 56 36 15 10 133 63 101 340 177 164 133 23 17 13 11 6 13 14 19
67 46 351 11 49 36 63 29 2 355 16 50 68 54 57 44 61 86 97 6 343 319 34 20 80 77 99 331 339 34 61 350 224 177 64 324 121 33 38 41 22 21 19 24 30
67 358 350 18 84 74 83 77 45 24 26 23 43 46 54 65 106 78 92 4 7 42 26 14 48 123 159 209 155 55 34 58 96 36 168 196 139 71 60 52 40 33 29 33 31
80 41 13 46 29 78 96 44 91 45 50 54 33 52 91 55 42 112 104 32 10 28 37 65 64 341 149 74 55 126 47 39 356 200 145 66 137 93 48 48 39 38 39 38 39
29 69 12 20 38 66 77 44 52 38 45 31 46 37 45 97 77 79 49 27 56 8 42 47 92 88 75 75 66 21 2 24 52 83 324 135 127 90 55 42 36 40 42 39 36
89 134 79 72 346 51 28 43 62 58 21 39 84 45 60 85 46 116 92 33 28 356 46 19 117 128 77 39 15 288 283 300 311 122 128 130 124 83 77 69 48 35 36 33 27
69 92 109 11 47 61 31 69 78 104 65 65 82 103 73 65 69 66 70 77 57 17 42 47 138 147 150 350 318 255 253 219 132 86 154 202 89 117 85 48 37 33 32 25 13